Location: Dürabuch
(48.2640°N, 11.2185°E)
Time: 03:42:58
(UTC+00:00)

Daily predictions for brighter satellites

Satellite Brightness Start Highest point End
(mag) Time Altitude Azimuth Time Altitude Azimuth Time Altitude Azimuth
Cosmos 2228 Rocket 3.1 00:05:20 49° SSW 00:06:27 73° W 00:10:57 10° N
Meteor 1-21 4.2 00:04:42 38° S 00:07:00 79° E 00:12:46 10° NNE
Helios 1A Rocket 2.8 00:07:43 48° SE 00:08:42 73° ENE 00:12:33 10° N
Cosmos 2082 Rocket 2.2 00:07:01 38° SSW 00:09:15 77° ESE 00:15:00 10° NNE
Cosmos 1833 Rocket 3.8 00:08:10 18° WSW 00:11:46 37° NW 00:17:00 10° NNE
BREEZE-M DEB (TANK) 3.4 00:13:11 42° SW 00:13:55 47° SSW 00:22:02 10° SE
CZ-2D R/B 3.9 00:13:31 10° NE 00:17:50 23° E 00:21:24 13° SE
Cosmos 1908 Rocket 4.1 00:15:49 10° N 00:20:11 53° ENE 00:22:21 27° SE
Cosmos 2360 Rocket 4.1 00:16:36 10° NNW 00:21:30 29° NE 00:26:22 10° ESE
USA 267 3.5 00:17:28 10° NE 00:23:58 69° NNW 00:30:21 10° WSW
DELTA 2 R/B (1) 4.2 00:26:16 33° S 00:26:16 33° S 00:31:07 10° ESE
Cosmos 1455 2.5 00:26:50 10° N 00:30:13 51° ENE 00:31:18 35° SE
Cosmos 1733 Rocket 3.6 00:26:59 10° NNW 00:31:03 40° W 00:31:55 36° WSW
Cosmos 841 Rocket 3.7 00:27:07 10° NNW 00:32:22 71° ENE 00:36:21 18° SSE
Resurs 1-4 Rocket 3.4 00:28:03 10° NNE 00:32:41 31° E 00:36:00 16° SSE
Cosmos 1400 Rocket 3.8 00:32:16 31° WSW 00:33:15 36° WNW 00:36:58 10° N
H-2A R/B 4.1 00:33:37 10° NNW 00:36:51 20° WNW 00:38:59 15° W
Cosmos 2278 3.7 00:35:57 10° NNW 00:41:42 84° ENE 00:46:48 13° SSE
H-2A R/B 4.3 00:38:22 10° NNE 00:42:08 38° E 00:43:49 25° SSE
NOSS 3-4 (A) 4.4 00:36:59 10° NW 00:43:26 40° WSW 00:47:10 26° SSW
NOSS 3-4 (C) 4.3 00:37:05 10° NW 00:43:33 41° WSW 00:47:19 25° SSW
Cosmos 1346 Rocket 3.3 00:41:03 10° NNW 00:44:43 41° W 00:45:17 38° WSW
Cosmos 676 Rocket 4.0 00:42:47 33° SSW 00:45:15 78° WNW 00:50:37 10° NNE
COBE Rocket 4.4 00:40:42 10° NNE 00:45:28 52° E 00:48:15 24° SSE
SL-08 R/B 4.5 00:44:05 29° SSW 00:47:23 74° W 00:53:33 10° N
Cosmos 468 Rocket 4.4 00:42:53 10° NNW 00:47:55 45° WSW 00:49:48 32° SSW
Okean 2 3.3 00:49:49 42° SSW 00:51:04 73° WNW 00:55:03 10° N
Cosmos 1954 Rocket 4.3 00:48:42 29° SW 00:51:20 59° WNW 00:56:36 10° NNE
Cosmos 1745 Rocket 4.0 00:48:37 25° S 00:52:25 79° E 00:58:44 10° N
CZ-2C R/B 3.2 00:47:46 11° SE 00:52:41 55° ENE 00:57:44 10° N
Meteor 1-4 Rocket 1.8 00:53:08 68° S 00:53:28 89° ENE 00:56:26 10° NNE
Cosmos 2333 Rocket 3.5 00:49:02 10° NNW 00:54:27 42° NE 00:59:52 10° ESE
Cosmos 2322 Rocket 2.7 00:53:49 10° NNW 00:59:25 59° ENE 01:05:00 10° SE
USA 234 3.7 00:56:30 18° S 01:00:49 38° SW 01:06:51 10° WNW
Cosmos 1703 Rocket 3.5 00:58:55 33° SSW 01:00:52 83° W 01:05:20 10° N
BREEZE-M R/B 4.4 00:59:28 24° S 01:02:15 42° SE 01:15:36 10° ENE
Cosmos 1953 2.5 01:00:22 10° NNW 01:04:10 49° W 01:05:20 36° SW
SL-8 R/B 4.0 01:01:13 10° W 01:05:42 42° SSW 01:10:13 10° SE
NPP 3.8 01:01:41 10° NNE 01:07:06 73° ESE 01:10:33 23° S
SL-27 R/B 4.2 01:08:51 14° SE 01:09:59 17° ESE 01:11:55 10° ENE
Cosmos 1980 Rocket 3.6 01:08:42 10° NW 01:12:46 20° W 01:14:01 19° WSW
Nadezhda 1 Rocket 4.2 01:07:40 10° NNW 01:13:59 61° W 01:18:17 21° SSW
SL-4 R/B 4.5 01:12:58 10° SE 01:14:11 11° SE 01:15:25 10° ESE
Cosmos 1242 Rocket 2.5 01:13:25 34° SSE 01:14:20 52° E 01:17:10 10° NNE
Cosmos 1300 Rocket 3.5 01:13:00 10° N 01:17:21 87° ENE 01:20:24 19° S
ADEOS II 2.8 01:14:49 10° NNE 01:19:54 48° E 01:24:13 14° S
MOZ.5/SAFIR/RUBIN 5/SL-8 4.3 01:18:20 26° SSW 01:20:28 41° W 01:24:57 10° NNW
Cosmos 1408 2.7 01:21:25 26° SSE 01:22:47 50° E 01:25:42 10° NNE
COSMOS 2406 4.1 01:19:32 17° WSW 01:23:30 41° NW 01:28:58 10° NNE
IDEFIX/ARIANE 42P 2.6 01:19:41 10° NNE 01:24:58 80° WNW 01:28:29 22° SSW
Lacrosse 5 rocket 1.2 01:21:47 10° WNW 01:25:48 55° SW 01:29:36 10° SE
ALOS 3.7 01:23:30 10° NNE 01:27:37 31° E 01:31:43 10° SSE
EXPRESS MD2 3.3 01:27:55 33° SSW 01:28:46 43° SSE 01:32:47 10° ENE
Okean 1-7 4.3 01:30:04 19° WSW 01:32:05 27° WNW 01:35:48 10° NNW
COSMOS 2441 4.4 01:30:45 10° NNE 01:35:34 76° ESE 01:39:15 17° S
ATLAS 2AS CENTAUR R/B 3.3 01:34:11 10° NW 01:41:02 59° NE 01:47:34 10° ESE
Cosmos 1315 Rocket 3.8 01:39:37 20° WSW 01:41:31 31° WNW 01:45:03 10° N
SJ 16-02 1.5 01:39:50 18° S 01:42:56 66° ESE 01:47:14 10° NNE
CZ-2C R/B 3.4 01:37:37 10° NNE 01:43:30 85° ESE 01:48:25 14° SSW
SL-16 R/B 2.5 01:38:20 10° NW 01:43:43 45° WSW 01:49:03 10° S
UNK 4.5 01:44:15 10° SSE 01:48:46 55° ENE 01:53:18 10° N
Cosmos 1850 Rocket 4.3 01:46:14 18° SW 01:50:02 57° WNW 01:55:15 10° NNE
Cosmos 2333 4.4 01:45:07 10° NNW 01:50:52 80° ENE 01:56:38 10° SSE
Cosmos 2082 Rocket 3.9 01:49:22 10° W 01:53:58 24° NW 01:58:35 10° N
Cosmos 1709 Rocket 4.3 01:49:42 16° SSW 01:54:38 56° WNW 02:00:54 10° N
Cosmos 1741 Rocket 4.4 01:51:18 17° SW 01:55:10 55° WNW 02:00:21 10° NNE
SL-16 R/B 2.6 01:49:46 10° SSE 01:56:03 84° WSW 02:02:22 10° NNW
Cosmos 2219 Rocket 2.6 01:51:26 10° NNW 01:57:05 67° ENE 02:02:43 10° SE
Cosmos 2181 Rocket 4.0 01:51:21 10° N 01:57:46 82° W 02:04:02 10° S
CZ-2D R/B 2.4 01:52:50 10° N 01:58:13 59° WNW 02:02:42 15° SW
Cosmos 1703 3.1 02:00:01 16° SSW 02:02:58 73° W 02:06:43 10° N
Meteor 1-28 Rocket 3.1 01:59:46 10° S 02:03:14 61° WSW 02:06:46 10° NNW
Cosmos 1455 4.2 02:03:10 10° WNW 02:04:14 11° W 02:05:04 10° W
AQUA 3.8 01:59:45 10° NNE 02:04:31 85° WNW 02:08:57 12° SSW
COSMOS 2428 4.2 01:59:58 10° NNW 02:05:21 41° NE 02:10:42 10° ESE
Cosmos 2360 Rocket 2.2 02:00:17 10° NNW 02:05:53 60° WSW 02:11:27 10° S
Cosmos 968 Rocket 3.7 02:02:10 15° SW 02:06:16 60° WNW 02:11:22 10° NNE
USA 267 4.4 02:00:23 10° ENE 02:06:28 43° N 02:12:32 10° WNW
Genesis I 2.9 02:05:37 17° SW 02:08:14 78° NW 02:11:49 10° NE
Meteor 1-24 Rocket 3.9 02:02:47 10° SSW 02:08:48 85° WNW 02:14:51 10° N
RESURS DK-1 2.2 02:06:01 10° NNW 02:10:04 70° WSW 02:14:06 10° SSE
MSX 4.4 02:05:41 10° N 02:11:05 44° WNW 02:16:00 12° SW
DELTA 2 R/B (1) 4.4 02:07:05 10° WSW 02:11:48 29° SSW 02:16:30 10° SE
Resurs 1-4 Rocket 2.7 02:07:39 10° N 02:12:35 42° WNW 02:17:04 12° SW
SAR-Lupe-4 3.5 02:11:28 10° NNE 02:15:03 88° ESE 02:18:38 10° SSW
FENGYUN 3A 3.9 02:16:51 10° N 02:22:08 58° WNW 02:27:22 10° SSW
IRAS Rocket 4.2 02:17:13 10° NNE 02:22:45 87° WNW 02:28:14 10° SSW
Geosat 4.0 02:26:03 10° SSE 02:31:04 83° WSW 02:36:08 10° NNW
CZ-2C R/B 3.8 02:29:18 10° SW 02:33:18 22° W 02:37:19 10° NW
Cosmos 2221 Rocket 3.6 02:29:26 10° S 02:33:58 84° W 02:38:32 10° N
ASTEX 1 4.1 02:29:55 10° SSE 02:34:44 57° E 02:39:33 10° N
SAR-Lupe-1 4.3 02:33:58 10° N 02:37:28 53° WNW 02:40:57 10° SSW
Cosmos 1825 2.0 02:34:17 10° S 02:37:41 80° E 02:41:08 10° NNE
Sich 1 Rocket 3.7 02:34:04 10° NNW 02:38:30 57° W 02:42:52 10° S
Cosmos 2333 Rocket 2.7 02:33:27 10° NW 02:38:41 38° WSW 02:43:56 10° S
Cosmos 2098 Rocket 4.3 02:34:06 10° NNW 02:38:50 37° W 02:44:19 10° SSW
Cosmos 1295 Rocket 4.5 02:34:20 10° SSW 02:40:28 78° W 02:46:36 10° N
Cosmos 2151 Rocket 3.9 02:36:40 10° NNW 02:41:01 49° W 02:45:17 10° SSW
SL-27 R/B 3.5 02:40:39 10° WSW 02:42:56 22° WNW 02:45:13 10° N
YAOGAN 6 3.7 02:39:51 10° NNE 02:43:00 39° E 02:46:06 10° S
Cosmos 2322 Rocket 3.2 02:38:31 10° NW 02:43:02 25° WSW 02:47:33 10° SSW
Cosmos 1892 2.4 02:40:19 10° SSW 02:43:49 73° W 02:47:20 10° N
Cosmos 1455 Rocket 4.3 02:39:55 10° N 02:44:08 46° ENE 02:48:22 10° SSE
Cosmos 1025 Rocket 3.7 02:41:29 10° S 02:45:47 58° E 02:50:06 10° NNE
Meteor 2-5 Rocket 4.4 02:43:44 10° SW 02:49:21 44° WNW 02:55:02 10° N
